CW6338 Weather Reports


Display with metric or nautical units.
time (UTC)temp
F
wind
direction
speed
MPH
gust
MPH
rain 1hr
in
rain 24hr
in
rain mn
in
humidity
%
barometer
mb
20260504013515 64 225 4.0 7.0 0.00 0.00 0.00 51 1008.8
20260504012535 65 225 4.0 5.0 0.00 0.00 0.00 49 1008.8
20260504011515 65 203 3.0 4.0 0.00 0.00 0.00 48 1008.7
20260504010536 66 248 4.0 7.0 0.00 0.00 0.00 48 1008.8
20260504005515 67 248 2.0 4.0 0.00 0.00 0.00 47 1008.8
20260504004515 67 225 4.0 7.0 0.00 0.00 0.00 46 1008.7
20260504003517 68 225 1.0 3.0 0.00 0.00 0.00 45 1008.7
20260504002517 68 248 3.0 7.0 0.00 0.00 0.00 44 1008.7
20260504001517 69 225 5.0 8.0 0.00 0.00 0.00 42 1008.7
20260504000517 69 225 4.0 7.0 0.00 0.00 0.00 42 1008.7
20260503235517 69 248 3.0 6.0 0.00 0.00 0.00 41 1008.7
20260503234517 70 248 7.0 12.0 0.00 0.00 0.00 40 1008.7
20260503233517 70 248 6.0 10.0 0.00 0.00 0.00 40 1008.8
20260503232517 70 270 6.0 9.0 0.00 0.00 0.00 40 1008.8
20260503231517 70 225 5.0 8.0 0.00 0.00 0.00 41 1008.9
20260503230517 70 270 2.0 3.0 0.00 0.00 0.00 42 1008.8
20260503225517 71 248 8.0 14.0 0.00 0.00 0.00 40 1008.8
20260503224517 71 225 6.0 11.0 0.00 0.00 0.00 41 1008.9
20260503223517 71 270 6.0 10.0 0.00 0.00 0.00 41 1009.1
20260503222517 71 248 4.0 10.0 0.00 0.00 0.00 40 1009.0
20260503221517 72 270 8.0 13.0 0.00 0.00 0.00 40 1009.1
20260503220537 72 270 7.0 14.0 0.00 0.00 0.00 40 1009.2
20260503215517 72 248 5.0 10.0 0.00 0.00 0.00 40 1009.1
20260503214517 72 270 10.0 16.0 0.00 0.00 0.00 39 1009.1
20260503213517 71 270 5.0 7.0 0.00 0.00 0.00 45 1009.2
20260503212517 71 293 5.0 10.0 0.00 0.00 0.00 46 1009.2
20260503211517 70 225 6.0 9.0 0.00 0.00 0.00 47 1009.1
20260503210537 69 248 6.0 10.0 0.00 0.00 0.00 48 1009.7
20260503205517 69 270 5.0 11.0 0.00 0.00 0.00 49 1009.8
20260503204517 68 270 7.0 13.0 0.00 0.00 0.00 49 1009.7
20260503203516 68 270 7.0 15.0 0.00 0.00 0.00 49 1009.7
20260503202517 68 248 6.0 12.0 0.00 0.00 0.00 48 1009.8
20260503201517 67 270 7.0 11.0 0.00 0.00 0.00 49 1009.8
20260503200517 67 270 5.0 8.0 0.00 0.00 0.00 48 1010.3
20260503195517 67 225 6.0 10.0 0.00 0.00 0.00 47 1010.3
20260503194516 66 248 11.0 17.0 0.00 0.00 0.00 49 1009.6
20260503193517 65 225 13.0 17.0 0.00 0.00 0.00 49 1009.5
20260503192517 65 203 11.0 21.0 0.00 0.00 0.00 48 1010.8
20260503191517 66 225 9.0 16.0 0.00 0.00 0.00 47 1010.6
20260503190516 67 203 10.0 18.0 0.00 0.00 0.00 46 1010.6
20260503185536 65 248 7.0 15.0 0.00 0.00 0.00 48 1009.9
20260503184517 66 248 12.0 22.0 0.00 0.00 0.00 46 1011.5
20260503183517 65 225 11.0 16.0 0.00 0.00 0.00 47 1010.8
20260503182516 65 203 12.0 25.0 0.00 0.00 0.00 47 1010.9
20260503181516 64 225 13.0 17.0 0.00 0.00 0.00 47 1011.5
20260503180516 63 203 15.0 24.0 0.00 0.00 0.00 48 1010.9
20260503175516 63 203 13.0 19.0 0.00 0.00 0.00 47 1011.2
20260503174516 64 203 9.0 18.0 0.00 0.00 0.00 47 1011.5
20260503173556 65 270 5.0 11.0 0.00 0.00 0.00 48 1012.0
20260503172516 63 180 11.0 17.0 0.00 0.00 0.00 47 1011.4
20260503171516 63 225 11.0 19.0 0.00 0.00 0.00 47 1011.8
20260503170536 64 203 8.0 13.0 0.00 0.00 0.00 46 1011.9
20260503150516 57 180 9.0 16.0 0.00 0.00 0.00 60 1013.2
20260503130516 51 180 7.0 11.0 0.00 0.00 0.00 64 1016.0
20260503110515 46 158 3.0 5.0 0.00 0.00 0.00 69 1016.5
20260503081517 46 180 4.0 7.0 0.00 0.00 0.00 67 1016.8
20260503080517 46 158 4.0 5.0 0.00 0.00 0.00 65 1016.8
20260503072517 47 158 5.0 7.0 0.00 0.00 0.00 64 1017.1
20260503071537 47 180 4.0 7.0 0.00 0.00 0.00 64 1017.1
20260503070537 46 180 4.0 7.0 0.00 0.00 0.00 65 1017.3
20260503054517 46 180 4.0 6.0 0.00 0.00 0.00 64 1017.9
20260503053517 46 158 3.0 6.0 0.00 0.00 0.00 64 1018.0
20260503052517 46 158 3.0 4.0 0.00 0.00 0.00 63 1018.0
20260503051517 47 158 4.0 5.0 0.00 0.00 0.00 63 1018.1
20260503050617 47 180 5.0 6.0 0.00 0.00 0.00 62 1018.2
20260503045516 47 158 4.0 6.0 0.00 0.00 0.00 62 1018.2
20260503044516 47 158 3.0 5.0 0.00 0.00 0.00 61 1018.3
20260503043516 47 180 4.0 5.0 0.00 0.00 0.00 60 1018.3
20260503042517 47 180 4.0 6.0 0.00 0.00 0.00 60 1018.3
20260503041517 47 158 4.0 6.0 0.00 0.00 0.00 59 1018.5
20260503040516 48 180 4.0 5.0 0.00 0.00 0.00 59 1018.5
20260503035516 48 180 4.0 5.0 0.00 0.00 0.00 58 1018.6
20260503034516 48 180 4.0 7.0 0.00 0.00 0.00 57 1018.6
20260503033516 48 180 3.0 5.0 0.00 0.00 0.00 56 1018.7
20260503032516 48 158 3.0 5.0 0.00 0.00 0.00 55 1018.8
20260503031516 49 158 3.0 4.0 0.00 0.00 0.00 54 1018.9
20260503030516 49 158 2.0 4.0 0.00 0.00 0.00 53 1018.9
20260503025516 49 158 2.0 4.0 0.00 0.00 0.00 53 1018.9
20260503024516 49 180 1.0 2.0 0.00 0.00 0.00 53 1018.9
20260503023516 49 158 2.0 2.0 0.00 0.00 0.00 53 1018.9
20260503022516 49 158 2.0 4.0 0.00 0.00 0.00 53 1018.9
20260503021536 50 0.0 0.0 0.00 0.00 0.00 54 1018.7
20260503020516 50 0.0 2.0 0.00 0.00 0.00 52 1018.7
20260503015516 51 0.0 0.0 0.00 0.00 0.00 51 1018.7
20260503014516 51 180 1.0 2.0 0.00 0.00 0.00 51 1018.6